Location: Eexterzandvoort
(53.0303°N, 6.7884°E)
Time: 06:55:43
(UTC+00:00)

Meteor 2-15 Rocket - Pass Details

Date: 19 May 2025
Orbit: 938 x 956 km, 82.5° (Epoch: 22 June)

Event Time Altitude Azimuth Distance (km) Brightness Sun altitude
Rises 22:51:46 0° 347° (NNW) 3,639 9.3 -16.5°
Reaches altitude 10° 22:54:17 10° 346° (NNW) 2,687 8.1 -16.6°
Maximum altitude 23:00:24 76° 263° (W) 982 4.5 -16.7°
Enters shadow 23:04:01 26° 182° (S) 1,771 5.3 -16.8°
